TimeCDT,TemperatureF,Dew PointF,Humidity,Sea Level PressureIn,VisibilityMPH,Wind Direction,Wind SpeedMPH,Gust SpeedMPH,PrecipitationIn,Events,Conditions,WindDirDegrees,DateUTC
12:15 AM,60.8,59.0,94,29.88,2.0,East,4.6,-,N/A,,Mostly Cloudy,90,2012-10-23 05:15:00
12:35 AM,60.8,59.0,94,29.88,2.5,East,9.2,-,N/A,,Partly Cloudy,80,2012-10-23 05:35:00
12:55 AM,60.8,59.0,94,29.88,2.0,East,8.1,-,N/A,,Mostly Cloudy,80,2012-10-23 05:55:00
1:15 AM,60.8,60.8,100,29.89,2.0,East,6.9,-,N/A,,Overcast,80,2012-10-23 06:15:00
1:35 AM,60.8,60.8,100,29.88,2.5,East,6.9,-,N/A,,Overcast,80,2012-10-23 06:35:00
1:55 AM,60.8,60.8,100,29.88,3.0,East,10.4,-,N/A,,Overcast,80,2012-10-23 06:55:00
2:15 AM,60.8,59.0,94,29.88,2.5,East,9.2,-,N/A,,Overcast,90,2012-10-23 07:15:00
2:35 AM,60.8,60.8,100,29.88,2.5,East,6.9,-,N/A,,Overcast,90,2012-10-23 07:35:00
2:55 AM,60.8,59.0,94,29.88,2.5,ESE,5.8,-,N/A,,Overcast,110,2012-10-23 07:55:00
3:15 AM,62.6,60.8,94,29.88,2.5,East,8.1,-,N/A,,Overcast,90,2012-10-23 08:15:00
3:35 AM,60.8,59.0,94,29.87,2.0,East,8.1,-,N/A,,Overcast,80,2012-10-23 08:35:00
3:55 AM,60.8,57.2,88,29.87,1.8,East,5.8,-,N/A,,Mostly Cloudy,90,2012-10-23 08:55:00
4:15 AM,60.8,59.0,94,29.87,1.8,ENE,5.8,-,N/A,,Scattered Clouds,70,2012-10-23 09:15:00
4:35 AM,60.8,57.2,88,29.87,2.0,East,5.8,-,N/A,,Mostly Cloudy,100,2012-10-23 09:35:00
4:55 AM,60.8,59.0,94,29.88,2.5,ESE,5.8,-,N/A,,Overcast,120,2012-10-23 09:55:00
5:15 AM,60.8,57.2,88,29.88,1.8,ESE,4.6,-,N/A,,Overcast,120,2012-10-23 10:15:00
5:35 AM,60.8,59.0,94,29.88,2.5,ESE,4.6,-,N/A,,Overcast,110,2012-10-23 10:35:00
5:55 AM,60.8,59.0,94,29.88,2.0,East,4.6,-,N/A,,Overcast,100,2012-10-23 10:55:00
6:35 AM,60.8,59.0,94,29.87,2.0,ESE,4.6,-,N/A,,Overcast,110,2012-10-23 11:35:00
6:55 AM,60.8,57.2,88,29.87,2.0,ESE,3.5,-,N/A,,Overcast,110,2012-10-23 11:55:00
7:15 AM,60.8,59.0,94,29.87,3.0,ESE,3.5,-,N/A,,Overcast,120,2012-10-23 12:15:00
7:35 AM,59.0,57.2,94,29.87,0.8,ESE,4.6,-,N/A,,Overcast,110,2012-10-23 12:35:00
7:55 AM,60.8,57.2,88,29.88,1.8,ESE,3.5,-,N/A,,Overcast,120,2012-10-23 12:55:00
8:15 AM,60.8,59.0,94,29.88,1.5,ESE,5.8,-,N/A,,Mostly Cloudy,110,2012-10-23 13:15:00
8:35 AM,62.6,60.8,94,29.88,3.0,SE,4.6,-,N/A,,Mostly Cloudy,130,2012-10-23 13:35:00
8:55 AM,62.6,60.8,94,29.89,5.0,Calm,Calm,-,N/A,,Overcast,0,2012-10-23 13:55:00
9:15 AM,64.4,62.6,94,29.91,5.0,SSE,5.8,-,N/A,,Overcast,160,2012-10-23 14:15:00
9:35 AM,64.4,62.6,94,29.91,7.0,SSE,4.6,-,N/A,,Overcast,160,2012-10-23 14:35:00
9:55 AM,66.2,62.6,88,29.91,6.0,SSE,6.9,-,N/A,,Overcast,160,2012-10-23 14:55:00
10:15 AM,66.2,62.6,88,29.91,7.0,South,5.8,-,N/A,,Mostly Cloudy,180,2012-10-23 15:15:00
10:55 AM,66.2,64.4,94,29.91,7.0,WSW,4.6,-,N/A,,Mostly Cloudy,240,2012-10-23 15:55:00
11:15 AM,66.2,64.4,94,29.90,8.0,SW,3.5,-,0.03,,Mostly Cloudy,230,2012-10-23 16:15:00
11:36 AM,66.2,64.4,94,29.90,10.0,WSW,9.2,-,0.03,,Overcast,240,2012-10-23 16:36:00
11:55 AM,69.8,64.4,83,29.90,10.0,WSW,9.2,-,0.03,,Mostly Cloudy,250,2012-10-23 16:55:00
12:15 PM,66.2,64.4,94,29.89,10.0,WSW,8.1,-,N/A,,Mostly Cloudy,250,2012-10-23 17:15:00
12:35 PM,66.2,62.6,88,29.89,10.0,Calm,Calm,-,N/A,,Overcast,0,2012-10-23 17:35:00
12:55 PM,69.8,64.4,83,29.88,10.0,SSW,3.5,-,N/A,,Mostly Cloudy,210,2012-10-23 17:55:00
1:15 PM,69.8,62.6,78,29.87,10.0,Calm,Calm,-,N/A,,Overcast,0,2012-10-23 18:15:00
1:35 PM,69.8,62.6,78,29.86,10.0,South,4.6,-,N/A,,Overcast,180,2012-10-23 18:35:00
1:55 PM,69.8,64.4,83,29.86,10.0,South,4.6,-,N/A,,Overcast,190,2012-10-23 18:55:00
2:15 PM,69.8,64.4,83,29.86,10.0,South,5.8,-,N/A,,Overcast,180,2012-10-23 19:15:00
2:35 PM,69.8,64.4,83,29.84,10.0,SSE,8.1,-,N/A,,Overcast,150,2012-10-23 19:35:00
2:55 PM,69.8,64.4,83,29.84,10.0,South,6.9,-,N/A,,Overcast,170,2012-10-23 19:55:00
3:15 PM,71.6,66.2,83,29.83,10.0,SSE,4.6,-,N/A,,Overcast,150,2012-10-23 20:15:00
3:35 PM,73.4,64.4,73,29.83,10.0,South,4.6,-,N/A,,Overcast,180,2012-10-23 20:35:00
3:55 PM,75.2,64.4,69,29.82,10.0,SSE,10.4,-,N/A,,Overcast,160,2012-10-23 20:55:00
4:15 PM,73.4,64.4,73,29.83,10.0,SSE,10.4,16.1,N/A,,Mostly Cloudy,150,2012-10-23 21:15:00
4:55 PM,71.6,62.6,73,29.83,10.0,South,6.9,-,N/A,,Scattered Clouds,180,2012-10-23 21:55:00
5:15 PM,69.8,62.6,78,29.83,10.0,South,6.9,-,N/A,,Mostly Cloudy,170,2012-10-23 22:15:00
5:35 PM,69.8,62.6,78,29.83,10.0,South,4.6,-,N/A,,Overcast,170,2012-10-23 22:35:00
5:55 PM,69.8,62.6,78,29.84,10.0,SSE,4.6,-,N/A,,Overcast,160,2012-10-23 22:55:00
6:15 PM,69.8,62.6,78,29.85,10.0,SSE,5.8,-,N/A,,Overcast,150,2012-10-23 23:15:00
6:35 PM,68.0,62.6,83,29.85,10.0,South,3.5,-,N/A,,Overcast,170,2012-10-23 23:35:00
6:55 PM,68.0,62.6,83,29.86,10.0,SSE,6.9,-,N/A,,Overcast,160,2012-10-23 23:55:00
7:15 PM,68.0,62.6,83,29.86,10.0,South,5.8,-,N/A,,Overcast,170,2012-10-24 00:15:00
7:35 PM,68.0,62.6,83,29.86,10.0,South,4.6,-,N/A,,Overcast,170,2012-10-24 00:35:00
7:55 PM,68.0,62.6,83,29.86,10.0,South,4.6,-,N/A,,Overcast,170,2012-10-24 00:55:00
8:15 PM,66.2,62.6,88,29.87,10.0,South,4.6,-,N/A,,Overcast,170,2012-10-24 01:15:00
8:35 PM,66.2,62.6,88,29.87,10.0,SSE,4.6,-,N/A,,Overcast,160,2012-10-24 01:35:00
8:55 PM,66.2,62.6,88,29.87,10.0,SSE,6.9,-,N/A,,Overcast,150,2012-10-24 01:55:00
9:15 PM,66.2,62.6,88,29.87,10.0,SE,11.5,-,N/A,,Overcast,140,2012-10-24 02:15:00
9:35 PM,66.2,62.6,88,29.88,10.0,South,3.5,-,N/A,,Overcast,170,2012-10-24 02:35:00
9:55 PM,66.2,62.6,88,29.88,10.0,SSE,5.8,-,N/A,,Overcast,160,2012-10-24 02:55:00
10:15 PM,66.2,62.6,88,29.88,10.0,SSE,4.6,-,N/A,,Overcast,150,2012-10-24 03:15:00
10:35 PM,66.2,60.8,83,29.88,10.0,SSE,4.6,-,N/A,,Overcast,150,2012-10-24 03:35:00
10:55 PM,66.2,62.6,88,29.88,10.0,SSE,5.8,-,N/A,,Overcast,150,2012-10-24 03:55:00
11:15 PM,66.2,62.6,88,29.88,10.0,SSE,4.6,-,N/A,,Overcast,160,2012-10-24 04:15:00
11:35 PM,66.2,62.6,88,29.89,10.0,Calm,Calm,-,N/A,,Overcast,0,2012-10-24 04:35:00
11:55 PM,66.2,60.8,83,29.88,10.0,SSE,6.9,-,N/A,,Mostly Cloudy,150,2012-10-24 04:55:00